Welcome to the New NWS' Forecast!
Most changes are behind the scenes, but click here for differences you might notice.
Latest weather observations around

Harrison, Boone County Airport (KHRO)

Using English Units (Switch to International System of Units)
Date/ Time (CST) Wind (mph) Vis. (mi) Weather Sky Cond. Temp (°F) Rel. Humidity Wind Chill (°F) Heat Index (°F) Pressure Precip. (in)
Air Dwpt 6 hour Altimeter (inHg) Sea level (inHg) 1 hr 3 hr 6 hr
Max Min
Jan 21 09:53 S 17 10 Mostly Cloudy BKN024 BKN031 63 55     75%     29.94 29.92      
Jan 21 08:53 S 14 10 Mostly Cloudy SCT024 BKN029 61 55     81%     29.94 29.92      
Jan 21 07:53 SSE 10 10 Clear CLR 57 53     87%     29.93 29.91      
Jan 21 06:53 SSE 8 10 Mostly Clear FEW024 54 52     93%     29.93 29.92      
Jan 21 05:53 SSE 9 10 Clear CLR 54 51     90%     29.92 29.91      
Jan 21 04:53 S 8 10 Mostly Clear FEW028 53 50     89%     29.93 29.92      
Jan 21 03:53 S 8 10 Partly Cloudy SCT028 57 51     81%     29.92 29.9      
Jan 21 02:53 S 10 10 Cloudy OVC026 59 52     78%     29.92 29.9      
Jan 21 01:53 S 13 10 Mostly Cloudy BKN025 58 52     81%     29.92 29.9      
Jan 21 00:53 S 9 10 Cloudy BKN023 OVC028 57 52     83%     29.92 29.9      
Jan 20 23:53 SSW 6 10 Mostly Cloudy BKN025 58 52     81%     29.93 29.91      
Jan 20 22:53 S 10 10 Mostly Cloudy BKN024 57 51     81%     29.92 29.91      
Jan 20 22:36 S 9 10 Mostly Cloudy BKN024 56 50     80%     29.93        
Jan 20 22:15 S 11 10 Partly Cloudy SCT022 56 50     80%     29.93        
Jan 20 22:08 S 11 10 Mostly Cloudy BKN022 56 50     80%     29.93        
Jan 20 21:53 S 16 10 Partly Cloudy SCT022 55 50     83%     29.93 29.92      
Jan 20 20:53   10 Clear CLR 55 49     80%     29.93 29.92      
Jan 20 19:53 S 11 10 Clear CLR 54 48     80%     29.95 29.94      
Jan 20 18:53 S 15 10 Clear CLR 53 48     83%     29.94 29.94      
Jan 20 17:53 S 16 10 Clear CLR 53 47     80%     29.93 29.93      
Jan 20 16:53 S 13 10 Clear CLR 55 47     74%     29.94 29.93      
Jan 20 15:53 S 18 10 Clear CLR 57 46     67%     29.94 29.93      
Jan 20 14:53 S 18 10 Clear CLR 59 46     62%     29.93 29.93      
Jan 20 13:53 S 16 10 Clear CLR 59 45     60%     29.94 29.93      
Jan 20 12:53 S 16 10 Mostly Clear FEW025 58 45     62%     29.97 29.96      
Jan 20 12:32 S 15 10 Partly Cloudy SCT024 58 45     62%     29.98        
Jan 20 11:53 S 14 10 Mostly Cloudy BKN021 56 46     69%     30 29.99      
Jan 20 10:53 S 11 10 Cloudy OVC020 54 46     74%     30.02 30.02      
Jan 20 09:53 S 9 10 Cloudy OVC021 53 46     77%     30.03 30.03      
Jan 20 08:53 S 5 10 Cloudy OVC020 52 45     77%     30.01 30.02      
Jan 20 08:01 SSE 6 10 Mostly Cloudy BKN022 47 43     86% 44   29.99        
Jan 20 07:53 SSE 7 10 Partly Cloudy SCT022 45 41     86% 41   29.99 30      
Jan 20 07:36 SE 8 10 Partly Cloudy SCT018 45 41     86% 41   29.99        
Jan 20 06:53 SE 8 10 Cloudy OVC018 46 40     79% 42   29.99 29.99      
Jan 20 06:39 SSE 6 10 Mostly Cloudy BKN019 45 39     80% 42   29.99        
Jan 20 05:53 SE 9 10 Mostly Clear FEW023 43 38     82% 38   29.99 30      
Jan 20 04:53 SSE 11 10 Clear CLR 47 40     76% 42   29.99 29.98      
Jan 20 03:53 SSW 9 10 Clear CLR 49 40     71% 45   29.99 29.98      
Jan 20 02:53 SSE 6 10 Clear CLR 41 35     79% 37   30 29.99      
Jan 20 01:53 SSE 8 10 Clear CLR 42 36     79% 37   30 29.99      
Jan 20 00:53 SSE 7 10 Clear CLR 41 35     79% 36   30 30      
Jan 19 23:53 S 8 10 Clear CLR 46 39     76% 42   30.01 30.01      
Jan 19 22:53 6 10 Clear CLR 45 38     76% 42   30.01 30.01      
Jan 19 21:53 SSE 7 10 Clear CLR 41 33     73% 36   30 30.01      
Jan 19 20:53 S 10 10 Clear CLR 42 32     67% 36   29.99 30.01      
Jan 19 19:53 SSE 8 10 Clear CLR 40 31     70% 34   29.98 30      
Jan 19 18:53 SSE 10 10 Clear CLR 43 30     60% 37   29.98 30      
Jan 19 17:53 S 11 10 Clear CLR 45 30     56% 39   29.98 30      
Jan 19 16:53 S 13 10 Clear CLR 51 29     42%     29.98 30      
Jan 19 15:53 S 10 10 Clear CLR 55 28     35%     29.99 30.01      
Jan 19 14:53 S 10 10 Clear CLR 55 29     37%     30 30.01      
Jan 19 13:53 WSW 10 10 Clear CLR 56 28     34%     30 30.01      
Jan 19 12:53 SSW 11 10 Clear CLR 55 27     34%     30.04 30.05      
Jan 19 11:53 SW 13 10 Clear CLR 53 24     32%     30.08 30.09      
Jan 19 10:53 SSW 14 10 Clear CLR 49 24     37% 44   30.11 30.13      
Jan 19 08:53 ESE 8 10 Clear CLR 35 13     40% 29   30.12 30.15      
Jan 19 07:53 E 6 10 Clear CLR 31 12     45% 25   30.12 30.15      
Jan 19 06:53 SE 6 10 Clear CLR 28 11     48% 22   30.13 30.16      
Jan 19 05:53 SSE 8 10 Clear CLR 28 11     48% 20   30.12 30.15      
Jan 19 04:53 S 5 10 Clear CLR 29 11     46% 24   30.13 30.15      
Jan 19 03:53 SSE 6 10 Clear CLR 29 12     49% 23   30.13 30.14      
Jan 19 02:53 SSE 6 10 Clear CLR 29 12     49% 23   30.15 30.16      
Jan 19 01:53 S 8 10 Clear CLR 27 11     50% 19   30.16 30.18      
Jan 19 00:53 SSE 9 10 Clear CLR 30 9     41% 22   30.18 30.2      
Jan 18 23:53 S 10 10 Clear CLR 29 10     45% 20   30.19 30.22      
Jan 18 22:53 SSE 10 10 Clear CLR 29 10     45% 20   30.21 30.24      
Jan 18 21:53 SE 9 10 Clear CLR 28 10     46% 19   30.22 30.25      
Jan 18 20:53 S 9 10 Clear CLR 30 8     39% 22   30.22 30.25      
Jan 18 19:53 S 7 10 Clear CLR 31 6     34% 24   30.23 30.27      
Jan 18 18:53 S 8 10 Clear CLR 34 6     30% 27   30.24 30.27      
Jan 18 17:53 S 9 10 Clear CLR 39        % 33   30.22 30.26      
Jan 18 16:53 SW 5 10 Clear CLR 44 10     25% 41   30.23 30.27      
Jan 18 15:53 SW 8 10 Clear CLR 47 10     22% 43   30.24 30.27      
Jan 18 14:53 WSW 8 10 Clear CLR 48 8     19% 44   30.25 30.28      
Jan 18 13:53 WSW 9 10 Clear CLR 46 6     19% 41   30.28 30.32      
Jan 18 12:53 SW 9 10 Clear CLR 44 6     21% 39   30.31 30.35      
Jan 18 11:53 W 7 10 Clear CLR 41 7     24% 36   30.37 30.41      
Jan 18 10:53 W 7 10 Clear CLR 38 7     27% 33   30.41 30.45      
Jan 18 09:53 SW 5 10 Clear CLR 33 6     32% 29   30.41 30.45      
Jun 12 02:53 SE 8 10 Clear CLR 71 67     87%   72 29.99 29.94      
Jun 11 14:53 S 11 10 Clear   84 66     55%   86 30.02 29.97      
Jun 11 13:53   10 Mostly Clear FEW046 83 64     53%   84 30.02 29.97      
Jun 11 04:53 S 7 10 Clear CLR 68 63     84%     29.98 29.93      
Jun 10 18:53 S 10 10 Clear CLR 78 64     62%   79 29.92 29.89      
Jun 10 13:53 SSE 11 10 Clear CLR 81 63     54%   82 29.96 29.93      
Jun 10 12:53 SSE 13 10 Clear CLR 80 61     52%   81 29.97 29.94      
Jun 09 19:53 S 6 10 Clear CLR 74 58     57%   74 29.92 29.88      
Jun 08 07:53 W 5 10 Clear CLR 59 54     83%     30.08 30.05      
Jun 07 10:53 ENE 6 10 Clear CLR 70 54     57%     30.08 30.05      
Jun 06 11:53 N 8 10 Clear CLR 81 67     62%   83 29.93 29.88